1294358427207,31.7837
1294358487207,31.8805
1294358547207,31.7752
1294358607207,31.7116
1294358667207,31.8356
1294358727207,31.7959
1294358787207,31.8154
1294358847207,31.7392
1294358907207,31.8657
1294358967207,31.7919
1294359027207,31.8923
1294359087207,31.9262
1294359147207,31.8513
1294359207207,31.9274
1294359267207,31.9792
1294359327207,31.9289
1294359387207,31.9298
1294359447207,31.9192
1294359507207,31.9845
1294359567207,31.9921
1294359627207,32.0623
1294359687207,31.8670
1294359747207,31.9820
1294359807207,31.8362
1294359867207,31.9529
1294359927207,31.9335
1294359987207,31.7707
1294360047207,31.9418
1294360107207,31.9657
1294360167207,31.9768
1294360227207,31.9425
1294360287207,31.8812
1294360347207,31.9474
1294360407207,31.8965
1294360467207,31.9453
1294360527207,31.9566
1294360587207,31.8981
1294360647207,31.9579
1294360707207,31.9216
1294360767207,31.9925
1294360827207,32.4622
1294360887207,32.1351
1294360947207,31.9773
1294361007207,32.0387
1294361067207,32.0667
1294361127207,32.0471
1294361187207,32.1416
1294361247207,31.9859
1294361307207,32.0297
1294361367207,32.0611
1294361427207,31.9237
1294361487207,32.0987
1294361547207,32.0359
1294361607207,31.9399
1294361667207,32.0336
1294361727207,31.9614
1294361787207,31.9793
1294361847207,31.9269
1294361907207,32.0696
1294361967207,32.0637
1294362027218,32.0964
1294362087218,32.0217
1294362147218,32.0436
1294362207218,32.0813
1294362267218,32.0129
1294362327218,32.0219
1294362387218,32.0071
1294362447218,32.0962
1294362507218,32.0142
1294362567218,32.0581
1294362627218,31.9506
1294362687218,32.1133
1294362747218,32.0686
1294362807218,32.1290
1294362867218,32.0403
1294362927218,32.1112
1294362987218,32.0045
1294363047218,32.0816
1294363107218,31.9684
1294363167218,32.0075
1294363227218,32.0058
1294363287218,32.0125
1294363347218,32.0922
1294363407218,32.1839
1294363467218,32.0419
1294363527218,32.0014
1294363587218,31.9978
1294363647218,32.0434
1294363707218,32.0311
1294363767218,32.0758
1294363827218,31.9763
1294363887218,31.9871
1294363947218,32.0713
1294364007218,32.0555
1294364067218,32.1268
1294364127218,32.0268
1294364187218,32.1117
1294364247218,32.1120
1294364307218,32.0611
1294364367218,32.0939
1294364427218,32.0760
1294364487218,32.1898
1294364547218,32.1461
1294364607218,32.0555
1294364667218,32.0248
1294364727218,32.0556
1294364787218,32.1659
1294364847218,32.0563
1294364907218,32.0860
1294364967218,32.0585
1294365027218,32.0685
1294365087218,32.1137
1294365147218,32.1119
1294365207218,32.1434
1294365267218,32.0646
1294365327218,32.1523
1294365387218,32.0638
1294365447218,32.1190
1294365507218,32.1617
1294365567218,31.9693
1294365627229,31.9660
1294365687229,32.0495
1294365747229,32.0572
1294365807229,32.0476
1294365867229,31.9955
1294365927229,32.0527
1294365987229,31.9926
1294366047229,32.0244
1294366107229,32.0400
1294366167229,32.0474
1294366227229,32.0167
1294366287229,32.0225
1294366347229,32.0521
1294366407229,32.0164
1294366467229,32.1232
1294366527229,32.1238
1294366587229,32.1076
1294366647229,32.1215
1294366707229,32.0133
1294366767229,32.1350
1294366827229,32.1061
1294366887229,32.2089
1294366947229,32.0572
1294367007229,32.0411
1294367067229,32.0654
1294367127229,32.1159
1294367187229,32.0416
1294367247229,32.1998
1294367307229,32.0421
1294367367229,32.0310
1294367427229,32.0342
1294367487229,32.0295
1294367547229,32.1099
1294367607229,31.9701
1294367667229,32.3145
1294367727229,32.0180
1294367787229,32.1054
1294367847229,32.0917
1294367907229,32.0835
1294367967229,32.0522
1294368027229,32.0194
1294368087229,31.9838
1294368147229,32.0565
1294368207229,32.0785
1294368267229,32.1266
1294368327229,31.9939
1294368387229,32.1003
1294368447229,32.0234
1294368507229,31.9811
1294368567229,32.0952
1294368627229,32.1913
1294368687229,31.9853
1294368747229,32.0933
1294368807229,32.1449
1294368867229,32.0927
1294368927229,32.1352
1294368987229,32.0567
1294369047229,32.1410
1294369107229,32.2074
1294369167229,32.1233
1294369227240,32.1514
1294369287240,32.1666
1294369347240,32.0597
1294369407240,32.0674
1294369467240,32.1887
1294369527240,32.1528
1294369587240,32.1333
1294369647240,32.1039
1294369707240,32.1121
1294369767240,32.1290
1294369827240,32.0940
1294369887240,32.1445
1294369947240,32.1709
1294370007240,32.1998
1294370067240,32.1273
1294370127240,32.1038
1294370187240,32.1380
1294370247240,32.1887
1294370307240,32.1378
1294370367240,32.2741
1294370427240,32.2315
1294370487240,32.1115
1294370547240,32.0778
1294370607240,32.1516
1294370667240,32.1756
1294370727240,32.1653
1294370787240,32.1323
1294370847240,32.2034
1294370907240,32.2387
1294370967240,32.1405
1294371027240,32.2077
1294371087240,32.2463
1294371147240,32.2708
1294371207240,32.3111
1294371267240,32.2345
1294371327240,32.1992
1294371387240,32.1404
1294371447240,32.2364
1294371507240,32.1601
1294371567240,32.2225
1294371627240,32.2369
1294371687240,32.1588
1294371747240,32.2470
1294371807240,32.2642
1294371867240,32.2031
1294371927240,32.3681
1294371987240,32.2548
1294372047240,32.3263
1294372107240,32.2164
1294372167240,32.3101
1294372227240,32.3705
1294372287240,32.2673
1294372347240,32.2439
1294372407240,32.1493
1294372467240,32.3511
1294372527240,32.2220
1294372587240,32.3402
1294372647240,32.2748
1294372707240,32.2559
1294372767240,32.3233
1294372827250,32.3044
1294372887250,32.3380
1294372947250,32.2953
1294373007251,32.3166
1294373067251,32.3160
1294373127250,32.3799
1294373187250,32.3816
1294373247250,32.3883
1294373307251,32.3507
1294373367251,32.4886
1294373427251,32.2900
1294373487251,32.3494
1294373547251,32.3345
1294373607251,32.4237
1294373667251,32.3403
1294373727251,32.4360
1294373787250,32.4824
1294373847250,32.4899
1294373907250,32.4306
1294373967250,32.5163
1294374027250,32.3638
1294374087250,32.3836
1294374147250,32.5221
1294374207250,32.5316
1294374267250,32.4926
1294374327251,32.4496
1294374387251,32.4552
1294374447250,32.4887
1294374507250,32.6334
1294374567250,32.3763
1294374627250,32.4709
1294374687251,32.4541
1294374747251,32.5204
1294374807251,32.3338
1294374867251,32.3594
1294374927251,32.4666
1294374987251,32.4060
1294375047251,32.3512
1294375107251,32.3768
1294375167250,32.4418
1294375227250,32.3354
1294375287250,32.3986
1294375347250,32.3723
1294375407250,32.4338
1294375467250,32.4119
1294375527250,32.3473
1294375587250,32.4000
1294375647250,32.2781
1294375707251,32.3082
1294375767251,32.3074
1294375827250,32.4086
1294375887250,32.3493
1294375947250,32.3085
1294376007251,32.3429
1294376067251,32.2349
1294376127251,32.3163
1294376187251,32.3646
1294376247251,32.3104
1294376307251,32.3284
1294376367251,32.2331
1294376427262,32.2619
1294376487262,32.2763
1294376547262,32.3078
1294376607262,32.3321
1294376667262,32.3185
1294376727262,32.3448
1294376787262,32.2356
1294376847262,32.2851
1294376907262,32.2623
1294376967262,32.2373
1294377027262,32.3324
1294377087262,32.3273
1294377147262,32.2480
1294377207262,32.3368
1294377267262,32.3245
1294377327262,32.2629
1294377387262,32.3538
1294377447262,32.2329
1294377507262,32.2699
1294377567262,32.3634
1294377627262,32.3360
1294377687262,32.3627
1294377747262,32.2666
1294377807262,32.3205
1294377867262,32.2449
1294377927262,32.3293
1294377987262,32.2938
1294378047262,32.2491
1294378107262,32.2519
1294378167262,32.2086
1294378227262,32.2269
1294378287262,32.2728
1294378347262,32.2446
1294378407262,32.2834
1294378467262,32.2138
1294378527262,32.3302
1294378587262,32.2656
1294378647262,32.2749
1294378707262,32.3068
1294378767262,32.3659
1294378827262,32.3553
1294378887262,32.4124
1294378947262,32.3034
1294379007262,32.2814
1294379067262,32.3197
1294379127262,32.3193
1294379187262,32.4217
1294379247262,32.3633
1294379307262,32.4017
1294379367262,32.4297
1294379427262,32.4016
1294379487262,32.4464
1294379547262,32.4007
1294379607262,32.3313
1294379667262,32.4483
1294379727262,32.4775
1294379787262,32.3324
1294379847262,32.4414
1294379907262,32.4403
1294379967262,32.3323
1294380027273,32.3066
1294380087273,32.4094
1294380147273,32.4635
1294380207273,32.4132
1294380267273,32.4210
1294380327273,32.4706
1294380387273,32.3448
1294380447273,32.4305
1294380507273,32.5467
1294380567273,32.4648
1294380627273,32.4675
1294380687273,32.5304
1294380747273,32.4754
1294380807273,32.3728
1294380867273,32.4781
1294380927273,32.4885
1294380987273,32.5946
1294381047273,32.4797
1294381107273,32.4676
1294381167273,32.3785
1294381227273,32.4104
1294381287273,32.3611
1294381347273,32.3659
1294381407273,32.3230
1294381467273,32.4133
1294381527273,32.3849
1294381587273,32.4544
1294381647273,32.3935
1294381707273,32.3912
1294381767273,32.4962
1294381827273,32.5064
1294381887273,32.4636
1294381947273,32.4103
1294382007273,32.3983
1294382067273,32.4270
1294382127273,32.4549
1294382187273,32.3533
1294382247273,32.4265
1294382307273,32.3954
1294382367273,32.4716
1294382427273,32.4693
1294382487273,32.3451
1294382547273,32.4849
1294382607273,32.4758
1294382667273,32.4408
1294382727273,32.4496
1294382787273,32.3928
1294382847273,32.3606
1294382907273,32.4060
1294382967273,32.3957
1294383027273,32.3958
1294383087273,32.3197
1294383147273,32.4648
1294383207273,32.4027
1294383267273,32.3895
1294383327273,32.3779
1294383387273,32.3261
1294383447273,32.4631
1294383507273,32.3912
1294383567273,32.3820
1294383627285,32.4689
1294383687285,32.3433
1294383747285,32.3939
1294383807285,32.3713
1294383867285,32.4089
1294383927285,32.3905
1294383987285,32.3999
1294384047285,32.2831
1294384107285,32.3555
1294384167285,32.4642
1294384227285,32.3435
1294384287285,32.3716
1294384347285,32.3686
1294384407285,32.2759
1294384467285,32.3405
1294384527285,32.4671
1294384587285,32.3530
1294384647285,32.2852
1294384707285,32.3844
1294384767285,32.3251
1294384827285,32.2816
1294384887285,32.2544
1294384947285,32.2961
1294385007285,32.4168
1294385067285,32.1777
1294385127285,32.4260
1294385187285,32.3261
1294385247285,32.3191
1294385307285,32.2875
1294385367285,32.2990
1294385427285,32.3279
1294385487285,32.3959
1294385547285,32.3765
1294385607285,32.3407
1294385667285,32.3869
1294385727285,32.3244
1294385787285,32.3620
1294385847285,32.4460
1294385907285,32.4384
1294385967285,32.3656
1294386027285,32.3370
1294386087285,32.3546
1294386147285,32.3424
1294386207285,32.4325
1294386267285,32.3391
1294386327285,32.2559
1294386387285,32.4348
1294386447285,32.3400
1294386507285,32.5093
1294386567285,32.3621
1294386627285,32.4184
1294386687285,32.2314
1294386747285,32.4024
1294386807285,32.4022
1294386867285,32.3614
1294386927285,32.4757
1294386987285,32.5265
1294387047285,32.5098
1294387107285,32.5373
1294387167285,32.3418
1294387227297,32.5129
1294387287297,32.4147
1294387347297,32.4776
1294387407297,32.4205
1294387467297,32.3661
1294387527297,32.3710
1294387587297,32.3928
1294387647297,32.4181
1294387707297,32.4606
1294387767297,32.4303
1294387827297,32.4591
1294387887297,32.3657
1294387947297,32.4246
1294388007297,32.4743
1294388067297,32.3800
1294388127297,32.4916
1294388187297,32.4225
1294388247297,32.4550
1294388307297,32.3137
1294388367297,32.4909
1294388427297,32.2643
1294388487297,32.2558
1294388547297,32.3992
1294388607297,32.2817
1294388667297,32.3519
1294388727297,32.3876
1294388787297,32.4016
1294388847297,32.3587
1294388907297,32.3775
1294388967297,32.4014
1294389027297,32.3522
1294389087297,32.3479
1294389147297,32.3267
1294389207297,32.4195
1294389267297,32.4183
1294389327297,32.3437
1294389387297,32.4085
1294389447297,32.3404
1294389507297,32.3066
1294389567297,32.2556
1294389627297,32.3527
1294389687297,32.3918
1294389747297,32.3175
1294389807297,32.3909
1294389867297,32.3057
1294389927297,32.3736
1294389987297,32.4096
1294390047297,32.2080
1294390107297,32.2643
1294390167297,32.3492
1294390227297,32.4291
1294390287297,32.4306
1294390347297,32.2920
1294390407297,32.4505
1294390467297,32.2730
1294390527297,32.2843
1294390587297,32.3619
1294390647297,32.1642
1294390707297,32.2261
1294390767297,32.1725
1294390827309,32.4016
1294390887309,32.3187
1294390947309,32.3283
1294391007309,32.3089
1294391067309,32.3151
1294391127309,32.3148
1294391187309,32.2970
1294391247309,32.3164
1294391307309,32.3295
1294391367309,32.3116
1294391427309,32.3633
1294391487309,32.3632
1294391547309,32.2854
1294391607309,32.2385
1294391667309,32.2836
1294391727309,32.2891
1294391787309,32.5147
1294391847309,32.2466
1294391907309,32.3907
1294391967309,32.4030
1294392027309,32.2123
1294392087309,32.2227
1294392147309,32.3854
1294392207309,32.2311
1294392267309,32.2800
1294392327309,32.3719
1294392387309,32.2460
1294392447309,32.3446
1294392507309,32.3426
1294392567309,32.2196
1294392627309,32.3747
1294392687309,32.2968
1294392747309,32.4204
1294392807309,32.2913
1294392867309,32.2742
1294392927309,32.3500
1294392987309,32.3524
1294393047309,32.3052
1294393107309,32.3485
1294393167309,32.4285
1294393227309,32.3004
1294393287309,32.3497
1294393347309,32.4566
1294393407309,32.2296
1294393467309,32.3449
1294393527309,32.3981
1294393587309,32.2966
1294393647309,32.2488
1294393707309,32.4346
1294393767309,32.2953
1294393827309,32.2381
1294393887309,32.3355
1294393947309,32.3155
1294394007309,32.2672
1294394067309,32.2701
1294394127309,32.4253
1294394187309,32.4477
1294394247309,32.4147
1294394307309,32.4267
1294394367309,32.3766
1294394427321,32.4344
1294394487321,32.3882
1294394547321,32.3868
1294394607321,32.4220
1294394667321,32.4045
1294394727321,32.5098
1294394787321,32.4404
1294394847321,32.4121
1294394907321,32.3263
1294394967321,32.4310
1294395027321,32.2943
1294395087321,32.3004
1294395147321,32.3629
1294395207321,32.3949
1294395267321,32.3763
1294395327321,32.3403
1294395387321,32.3731
1294395447321,32.3447
1294395507321,32.2321
1294395567321,32.3787
1294395627321,32.3711
1294395687321,32.2680
1294395747321,32.3532
1294395807321,32.3601
1294395867321,32.2915
1294395927321,32.3942
1294395987321,32.2162
1294396047321,32.2663
1294396107321,32.3941
1294396167321,32.3208
1294396227321,32.3025
1294396287321,32.3090
1294396347321,32.2903
1294396407321,32.4087
1294396467321,32.2893
1294396527321,32.4746
1294396587321,32.2891
1294396647321,32.3981
1294396707321,32.2525
1294396767321,32.3408
1294396827321,32.3470
1294396887321,32.6914
1294396947321,32.4032
1294397007321,32.4155
1294397067321,32.3373
1294397127321,32.4187
1294397187321,32.4220
1294397247321,32.4067
1294397307321,32.3737
1294397367321,32.4200
1294397427321,32.2803
1294397487321,32.3513
1294397547321,32.2701
1294397607321,32.3613
1294397667321,32.3183
1294397727321,32.2307
1294397787321,32.2441
1294397847321,32.5495
1294397907321,32.4121
1294397967321,32.3668
1294398027333,32.3267
1294398087333,32.2913
1294398147333,32.2798
1294398207333,32.2907
1294398267333,32.2726
1294398327333,32.4113
1294398387333,32.2922
1294398447333,32.2882
1294398507333,32.2909
1294398567333,32.2069
1294398627333,32.3372
1294398687333,32.3213
1294398747333,32.4016
1294398807333,32.3843
1294398867333,32.3438
1294398927333,32.3699
1294398987333,32.3972
1294399047333,32.3755
1294399107333,32.4423
1294399167333,32.3070
1294399227333,32.2711
1294399287333,32.3742
1294399347333,32.4310
1294399407333,32.3871
1294399467333,32.4238
1294399527333,32.2986
1294399587333,32.3617
1294399647333,32.3881
1294399707333,32.4368
1294399767333,32.3485
1294399827333,32.3512
1294399887333,32.3340
1294399947333,32.3370
1294400007333,32.3516
1294400067333,32.4220
1294400127333,32.4922
1294400187333,32.4330
1294400247333,32.4107
1294400307333,32.4471
1294400367333,32.4205
1294400427333,32.2670
1294400487333,32.2914
1294400547333,32.4317
1294400607333,32.4198
1294400667333,32.4500
1294400727333,32.3989
1294400787333,32.4002
1294400847333,32.3931
1294400907333,32.4553
1294400967333,32.3225
1294401027333,32.3476
1294401087333,32.4645
1294401147333,32.3796
1294401207333,32.3827
1294401267333,32.3635
1294401327333,32.4735
1294401387333,32.5304
1294401447333,32.3602
1294401507333,32.3756
1294401567333,32.3434
1294401627345,32.4059
1294401687345,32.4655
1294401747345,32.4016
1294401807345,32.3909
1294401867345,32.3463
1294401927345,32.2599
1294401987345,32.2931
1294402047345,32.3694
1294402107345,32.3426
1294402167345,32.3907
1294402227345,32.4653
1294402287345,32.3317
1294402347345,32.3456
1294402407345,32.4546
1294402467345,32.2783
1294402527345,32.3453
1294402587345,32.4384
1294402647345,32.3534
1294402707345,32.3959
1294402767345,32.4172
1294402827345,32.3256
1294402887345,32.3962
1294402947345,32.3792
1294403007345,32.3433
1294403067345,32.4236
1294403127345,32.5152
1294403187345,32.3867
1294403247345,32.4523
1294403307345,32.4283
1294403367345,32.3450
1294403427345,32.4913
1294403487345,32.4231
1294403547345,32.4915
1294403607345,32.3940
1294403667345,32.3503
1294403727345,32.3738
1294403787345,32.4840
1294403847345,32.2586
1294403907345,32.3864
1294403967345,32.4437
1294404027345,32.4896
1294404087345,32.3474
1294404147345,32.3624
1294404207345,32.3800
1294404267345,32.4036
1294404327345,32.5037
1294404387345,32.3413
1294404447345,32.4504
1294404507345,32.4280
1294404567345,32.3772
1294404627345,32.4008
1294404687345,32.4649
1294404747345,32.5391
1294404807345,32.4531
1294404867345,32.3742
1294404927345,32.4622
1294404987345,32.4556
1294405047345,32.4315
1294405107345,32.4363
1294405167345,32.4779
1294405227357,32.3191
1294405287357,32.3238
1294405347357,32.4155
1294405407357,32.4949
1294405467357,32.3807
1294405527357,32.4078
1294405587357,32.3696
1294405647357,32.5238
1294405707357,32.4917
1294405767357,32.5244
1294405827357,32.5081
1294405887357,32.4670
1294405947357,32.4422
1294406007357,32.4805
1294406067357,32.3510
1294406127357,32.5214
1294406187357,32.4017
1294406247357,32.3418
1294406307357,32.4520
1294406367357,32.3873
1294406427357,32.4312
1294406487357,32.4968
1294406547357,32.5287
1294406607357,32.4468
1294406667357,32.5320
1294406727357,32.4462
1294406787357,32.4736
1294406847357,32.4415
1294406907357,32.4117
1294406967357,32.4433
1294407027357,32.4972
1294407087357,32.5198
1294407147357,32.4264
1294407207357,32.3385
1294407267357,32.4076
1294407327357,32.4306
1294407387357,32.5547
1294407447357,32.6102
1294407507357,32.4788
1294407567357,32.5495
1294407627357,32.5274
1294407687357,32.4357
1294407747357,32.4244
1294407807357,32.4964
1294407867357,32.4764
1294407927357,32.4664
1294407987357,32.5631
1294408047357,32.5538
1294408107357,32.5341
1294408167357,32.7162
1294408227357,32.4148
1294408287357,32.5558
1294408347357,32.5103
1294408407357,32.5782
1294408467357,32.4831
1294408527357,32.5767
1294408587357,32.6079
1294408647357,32.5678
1294408707357,32.5664
1294408767357,32.5653
1294408827370,32.4997
1294408887370,32.5346
1294408947370,32.5080
1294409007370,32.6253
1294409067370,32.5847
1294409127370,32.4846
1294409187370,32.5320
1294409247370,32.5682
1294409307370,32.5906
1294409367370,32.4968
1294409427370,32.5969
1294409487370,32.5336
1294409547370,32.6500
1294409607370,32.4464
1294409667370,32.4301
1294409727370,32.4605
1294409787370,32.5267
1294409847370,32.6190
1294409907370,32.6209
1294409967370,32.6543
1294410027370,32.4786
1294410087370,32.5189
1294410147370,32.6230
1294410207370,32.3911
1294410267370,32.6357
1294410327370,32.5242
1294410387370,32.6886
1294410447370,32.5895
1294410507370,32.5736
1294410567370,32.5226
1294410627370,32.5463
1294410687370,32.5340
1294410747370,32.5686
1294410807370,32.6288
1294410867370,32.4790
1294410927370,32.5788
1294410987370,32.5953
1294411047370,32.5905
1294411107370,32.5724
1294411167370,32.5893
1294411227370,32.6385
1294411287370,32.5914
1294411347370,32.5889
1294411407370,32.6426
1294411467370,32.5694
1294411527370,32.4970
1294411587370,32.5586
1294411647370,32.5607
1294411707370,32.6451
1294411767370,32.6090
1294411827370,32.6193
1294411887370,32.5688
1294411947370,32.5612
1294412007370,32.6713
1294412067370,32.5358
1294412127370,32.6125
1294412187370,32.6200
1294412247370,32.6156
1294412307370,32.6874
1294412367370,32.6452
1294412427382,32.6337
1294412487382,32.6514
1294412547382,32.5720
1294412607382,32.7291
1294412667382,32.5736
1294412727382,32.6650
1294412787382,32.6838
1294412847382,32.6704
1294412907382,32.6295
1294412967382,32.6316
1294413027382,32.7521
1294413087382,32.5967
1294413147382,32.6216
1294413207382,32.6020
1294413267382,32.4974
1294413327382,32.6421
1294413387382,32.5534
1294413447382,32.6336
1294413507382,32.5822
1294413567382,32.5367
1294413627382,32.5518
1294413687382,32.5479
1294413747382,32.6145
1294413807382,32.6201
1294413867382,32.5875
1294413927382,32.6795
1294413987382,32.6787
1294414047382,32.6716
1294414107382,32.4862
1294414167382,32.6152
1294414227382,32.5857
1294414287382,32.5407
1294414347382,32.6614
1294414407382,32.5933
1294414467382,32.5976
1294414527382,32.5884
1294414587382,32.7118
1294414647382,32.6658
1294414707382,32.5746
1294414767382,32.4414
1294414827382,32.5613
1294414887382,32.5298
1294414947382,32.6847
1294415007382,32.6038
1294415067382,32.4768
1294415127382,32.5665
1294415187382,32.5383
1294415247382,32.6605
1294415307382,32.5642
1294415367382,32.6037
1294415427382,32.5057
1294415487382,32.5877
1294415547382,32.4724
1294415607382,32.5212
1294415667382,32.6060
1294415727382,32.5182
1294415787382,32.5386
1294415847382,32.5280
1294415907382,32.5388
1294415967382,32.5886
1294416027394,32.5297
1294416087394,32.5256
1294416147394,32.6407
1294416207394,32.6533
1294416267394,32.6361
1294416327394,32.5134
1294416387394,32.6040
1294416447394,32.5782
1294416507394,32.6851
1294416567394,32.6149
1294416627394,32.7002
1294416687394,32.5987
1294416747394,32.5550
1294416807393,32.5671
1294416867393,32.5509
1294416927393,32.7346
1294416987393,32.6006
1294417047393,32.6960
1294417107394,32.6862
1294417167394,32.7360
1294417227394,32.7686
1294417287394,32.6934
1294417347394,32.6126
1294417407394,32.6668
1294417467394,32.7687
1294417527394,32.8455
1294417587394,32.7442
1294417647394,32.7648
1294417707394,32.7199
1294417767394,32.8892
1294417827394,32.7623
1294417887394,32.7039
1294417947394,32.7462
1294418007394,32.7356
1294418067394,32.7989
1294418127393,32.7496
1294418187393,32.7274
1294418247393,32.7375
1294418307393,32.7562
1294418367393,32.8078
1294418427394,32.7778
1294418487394,32.8211
1294418547394,32.6432
1294418607394,32.7991
1294418667394,32.6640
1294418727394,32.8067
1294418787394,32.7250
1294418847394,32.7495
1294418907394,32.7673
1294418967394,32.7031
1294419027394,32.8130
1294419087394,32.7754
1294419147394,32.6447
1294419207394,32.7015
1294419267394,32.5329
1294419327394,32.6686
1294419387394,32.6259
1294419447394,32.5779
1294419507393,32.8578
1294419567393,32.7421
1294419627405,32.6571
1294419687405,32.6723
1294419747405,32.6627
1294419807405,32.7854
1294419867405,32.7955
1294419927405,32.5797
1294419987405,32.7122
1294420047405,32.6469
1294420107405,32.6758
1294420167405,32.7189
1294420227405,32.6876
1294420287405,32.6635
1294420347405,32.7868
1294420407405,32.6856
1294420467405,32.6875
1294420527405,32.6808
1294420587405,32.7097
1294420647405,32.6701
1294420707405,32.7700
1294420767405,32.6059
1294420827405,32.6556
1294420887405,32.6655
1294420947405,32.6239
1294421007405,32.6296
1294421067405,32.6478
1294421127405,32.6090
1294421187405,32.6068
1294421247405,32.6405
1294421307405,32.5385
1294421367405,32.6964
1294421427405,32.6316
1294421487405,32.6816
1294421547405,32.6041
1294421607405,32.6220
1294421667405,32.6198
1294421727405,32.6266
1294421787405,32.6700
1294421847405,32.5632
1294421907405,32.5757
1294421967405,32.6105
1294422027405,32.6018
1294422087405,32.5481
1294422147405,32.5198
1294422207405,32.6677
1294422267405,32.5788
1294422327405,32.5294
1294422387405,32.5446
1294422447405,32.6088
1294422507405,32.5759
1294422567405,32.6227
1294422627405,32.5561
1294422687405,32.5709
1294422747405,32.5025
1294422807405,32.4647
1294422867405,32.6349
1294422927405,32.6025
1294422987405,32.6036
1294423047405,32.6394
1294423107405,32.6558
1294423167405,32.5979
1294423227417,32.5179
1294423287417,32.5832
1294423347417,32.5421
1294423407417,32.6677
1294423467417,32.6524
1294423527417,32.6505
1294423587417,32.5485
1294423647417,32.6794
1294423707417,32.6410
1294423767417,32.6259